Regional Weather Roundup
Issued by NWS

Home | Current Version | Previous Version | Graphics & Text | Print | Product List | Glossary Off
Versions: 1 2 3 4 5 6 7 8 9 10 11 12 13 14 15 16 17 18 19 20 21 22 23 24 25 26 27 28 29 30 31 32 33 34 35 36 37 38 39 40 41 42 43 44 45 46 47 48 49 50

000
ASUS43 KTOP 260308
RWRKS

WEATHER ROUNDUP FOR KANSAS
NATIONAL WEATHER SERVICE GOODLAND KS
1000 PM CDT TUE APR 25 2017

NOTE:  "FAIR" INDICATES FEW OR NO CLOUDS BELOW 12,000 FEET WITH NO
SIGNIFICANT WEATHER AND/OR OBSTRUCTIONS TO VISIBILITY.

KSZ001>006-013>018-027>032-041>047-260400-
NORTHWEST KANSAS

CITY           SKY/WX    TMP DP  RH WIND       PRES   REMARKS
GOODLAND       CLOUDY    45  40  82 NE20      29.71R
HAYS           CLOUDY    45  39  79 N18       29.66R
HILL CITY      CLOUDY    44  38  79 N16G23    29.71R
RUSSELL        CLOUDY    44  38  79 N18       29.63R
$$

KSZ061>065-074>080-084>089-260400-
SOUTHWEST KANSAS

CITY           SKY/WX    TMP DP  RH WIND       PRES   REMARKS
DODGE CITY     CLOUDY    50  45  83 N22G28    29.58R
ELKHART          N/A     48  45  90 NW6         N/A
GARDEN CITY    MOCLDY    51  43  74 NE18      29.61R
GREAT BEND     LGT RAIN  47  42  83 N20       29.61R
PRATT          CLOUDY    46  43  89 NE13      29.59R
$$

KSZ066>073-081>083-090>101-260400-
SOUTHEAST KANSAS

CITY           SKY/WX    TMP DP  RH WIND       PRES   REMARKS
CHANUTE        CLOUDY    62  60  93 N6        29.44F
COFFEYVILLE    LGT RAIN  63  62  97 CALM      29.44S
HUTCHINSON     PTCLDY    47  41  80 N18G26    29.56R
MEDICINE LODGE   N/A     49  45  86 N21G31    29.52R
NEWTON         PTCLDY    48  43  82 N20G25    29.56R
PARSONS        CLOUDY    62  60  93 CALM      29.44F
WICHITA INTL   CLOUDY    52  46  80 N14       29.54R
WICHITA JABRA  CLOUDY    50  47  89 N17       29.54R
WICHITA MCCONL CLOUDY    52  46  79 N16       29.53R
WINFIELD       MOCLDY    55  50  83 N16G23    29.51R
$$

KSZ007>012-019>026-033>040-048>060-102>105-260400-
NORTHEAST KANSAS

CITY           SKY/WX    TMP DP  RH WIND       PRES   REMARKS
CONCORDIA      CLOUDY    43  38  82 N17       29.62R
EMPORIA        CLOUDY    52  48  86 NW17G24   29.54R
LAWRENCE       CLOUDY    54  50  86 NW13      29.51R
MANHATTAN      CLOUDY    47  42  83 N8        29.59R
MARYSVILLE     DRIZZLE   43  41  93 N15G21    29.60R
OLATHE IND     LGT RAIN  54  52  93 N21       29.51R FOG
OLATHE EXE     LGT RAIN  60  53  77 NW14G25   29.51R
SALINA         LGT RAIN  47  41  80 N20       29.61R
TOPEKA BILLARD CLOUDY    53  47  79 N12       29.55R
TOPEKA FORBES  CLOUDY    54  47  77 N17       29.54R
$$




USA.gov is the U.S. government's official web portal to all federal, state and local government web resources and services.